📊 Raw Sensor Data

Showing records 43426 to 43450 of 85,017 total

ID Distance (ft) Battery V Battery A Int Temp (°F) Int Humid (%) Ext Temp (°F) Solar V RSSI SNR Time Stamp
41604 16.0 3.89 0 69 42 71 5.10 -72 7 05/25/2025 10:30 AM
41603 16.0 3.93 0 68 42 71 5.10 -70 7 05/25/2025 10:15 AM
41602 16.0 3.89 0 67 42 70 5.10 -69 7 05/25/2025 10:00 AM
41601 16.0 3.93 0 66 42 69 5.10 -70 8 05/25/2025 09:30 AM
41600 16.0 3.90 0 65 43 69 5.10 -70 7 05/25/2025 09:15 AM
41599 16.0 3.90 0 63 43 68 5.10 -70 8 05/25/2025 09:00 AM
41598 16.0 3.90 0 62 43 66 5.10 -72 8 05/25/2025 08:45 AM
41597 16.0 3.90 0 61 43 66 5.10 -71 7 05/25/2025 08:30 AM
41596 16.0 3.90 0 60 43 64 5.10 -72 8 05/25/2025 08:15 AM
41595 16.0 4.10 0 59 42 64 5.10 -69 7 05/25/2025 08:00 AM
41594 16.0 3.92 0 57 42 62 5.10 -70 7 05/25/2025 07:30 AM
41593 15.9 3.94 25 56 41 60 4.50 -70 8 05/25/2025 07:15 AM
41592 15.9 3.96 0 54 41 59 4.50 -70 8 05/25/2025 07:00 AM
41591 15.8 3.88 6 53 41 57 4.50 -70 8 05/25/2025 06:45 AM
41590 15.8 3.86 0 52 41 55 4.60 -71 8 05/25/2025 06:30 AM
41589 15.8 3.81 0 50 42 53 4.50 -71 8 05/25/2025 06:15 AM
41588 15.7 3.79 -8 49 42 51 4.50 -70 8 05/25/2025 06:00 AM
41587 15.7 3.83 -9 49 42 50 2.30 -69 8 05/25/2025 05:45 AM
41586 15.7 3.84 -5 49 42 50 0.30 -68 8 05/25/2025 05:30 AM
41585 15.7 3.81 -5 49 42 50 0.00 -69 8 05/25/2025 05:15 AM
41584 15.2 3.91 -5 49 42 50 0.00 -69 8 05/25/2025 05:00 AM
41583 15.2 3.92 -5 49 42 51 0.10 -68 8 05/25/2025 04:45 AM
41582 15.2 3.92 -5 50 42 51 0.00 -69 8 05/25/2025 04:30 AM
41581 15.2 3.85 -5 50 42 51 0.00 -69 8 05/25/2025 04:15 AM
41580 15.2 3.92 -5 50 43 52 0.00 -68 8 05/25/2025 04:00 AM